Content
SEND FEEDBACK

Daily
Averages
Monthly
Summary
United States of America

ST. LOUIS, MISSOURI


Home > North America > United States > Missouri
Elevation: 163 meters     Latitude: 38 45N     Longitude: 090 22W

WEATHER
 
SELECT A DAY
Number of Records: 196,698;   Date Range: 1/1/95 - 9/22/14
 
SHARE

PRINT THIS DATA

[ ← Previous Day ]
WEATHER ALMANAC - 10 JANUARY, 2013
[ Next Day → ]
[ °F ]   °C
Weather ElementAverageHighLow
Temperature8.5 °C11.7 °C (11:54 pm)3.9 °C (1:54 am)
Dewpoint6.2 °C11 °C (10:24 pm)-1.7 °C (2:54 am)
Humidity87 %100 % (7:03 pm)53 % (3:54 am)
Barometer1016.6 hPa1030.1 hPa (1:54 am)1008.5 hPa (10:54 pm)
Wind Speed9.5 km/h20.4 km/h (7:47 am)
Wind Gust31.5 km/h (7:54 am)
Weather ElementAverage
Visibility8 km
Wind DirectionESE (104 °)

Weather ElementTotal
Precipitation14.22 mm
Heating Degree Days10.6 (Base 18.3)
Averaged from 42 records on 10 January, 2013
WEATHER CONDITIONS BREAKOUT
WIND DIRECTION BREAKOUT
WEATHER BY HOUR - 10 JANUARY, 2013
[ °F ]   °C
Local TimeTemperatureDewpointHumidityBarometerVisibilityWind DirectionWind SpeedGust SpeedPrecipitationEventsConditions
1:54 AM3.9 °C-0.6 °C73 %1030.1 hPa16.1 kmENE (70°)9.3 km/hClear
2:54 AM6.7 °C-1.7 °C55 %1029.8 hPa16.1 kmENE (70°)7.4 km/hClear
3:54 AM7.2 °C-1.7 °C53 %1028.4 hPa16.1 kmEast (80°)13 km/hPartly Cloudy
4:54 AM7.2 °C-1.1 °C56 %1027.4 hPa16.1 kmEast (80°)13 km/hOvercast
5:54 AM6.1 °C0.6 °C68 %1026.8 hPa16.1 kmEast (80°)16.7 km/h0 mmRainLight Rain
6:47 AM7 °C-1 °C57 %1025.4 hPa16.1 kmEast (90°)16.7 km/h0 mmOvercast
6:54 AM7.2 °C-0.6 °C58 %1026.1 hPa16.1 kmEast (100°)16.7 km/h0 mmOvercast
7:47 AM7 °C2 °C71 %1025.4 hPa16.1 kmEast (90°)20.4 km/h0 mmOvercast
7:54 AM6.1 °C2.2 °C76 %1025.4 hPa14.5 kmEast (90°)18.5 km/h31.5 km/h0 mmOvercast
8:54 AM5.6 °C3.3 °C85 %1025.1 hPa9.7 kmEast (90°)13 km/h0.51 mmRainLight Rain
9:54 AM5.6 °C3.9 °C89 %1024 hPa6.4 kmESE (110°)13 km/h0.51 mmOvercast
10:11 AM6 °C4 °C87 %1023 hPa14.5 kmESE (110°)13 km/hOvercast
10:42 AM6 °C4 °C87 %1023 hPa16.1 kmEast (100°)7.4 km/hOvercast
10:54 AM6.1 °C4.4 °C89 %1022.7 hPa16.1 kmEast (100°)16.7 km/hOvercast
11:54 AM6.7 °C5.6 °C93 %1020 hPa8 kmEast (100°)16.7 km/hOvercast
12:47 PM7 °C6 °C93 %1018.6 hPa4 kmEast (90°)13 km/hOvercast
12:54 PM7.2 °C6.1 °C93 %1018.6 hPa2.9 kmEast (100°)13 km/hOvercast
1:05 PM7 °C6 °C93 %1018.3 hPa1.3 kmESE (110°)13 km/hOvercast
1:54 PM7.8 °C6.7 °C93 %1017.9 hPa1.3 kmESE (120°)14.8 km/hOvercast
2:54 PM8.3 °C7.2 °C93 %1016.3 hPa0.8 kmESE (110°)9.3 km/hFogFog
3:54 PM8.3 °C7.8 °C97 %1015.2 hPa1.3 kmNE (40°)5.6 km/h0 mmLight Drizzle
4:54 PM8.3 °C7.8 °C97 %1014.2 hPa0.8 kmENE (70°)9.3 km/h0.25 mmFogFog
5:54 PM8.3 °C7.8 °C97 %1014.2 hPa1.3 kmCalm0 mmMist
6:54 PM8.3 °C7.8 °C97 %1013.2 hPa1.3 kmENE (70°)9.3 km/h0.25 mmOvercast
7:03 PM8 °C8 °C100 %1012.9 hPa1.9 kmENE (70°)9.3 km/hOvercast
7:14 PM9 °C8 °C93 %1012.9 hPa4.8 kmEast (80°)5.6 km/hOvercast
7:54 PM10.6 °C10 °C96 %1011.9 hPa9.7 kmEast (100°)5.6 km/h0.25 mmOvercast
8:54 PM10.6 °C10 °C96 %1010.5 hPa6.4 kmNNE (30°)5.6 km/h0.76 mmRainLight Rain
9:05 PM11 °C9 °C88 %1009.8 hPa3.2 kmENE (60°)7.4 km/h0.51 mmRainLight Rain
9:29 PM11 °C10 °C94 %1009.1 hPa4.8 kmEast (80°)7.4 km/h0.76 mmRainLight Rain
9:38 PM11 °C10 °C94 %1009.5 hPa3.2 kmCalm1.52 mmRainRain
9:50 PM11 °C10 °C94 %1009.1 hPa4.8 kmCalm2.29 mmRainRain
9:54 PM10.6 °C10 °C96 %1009.1 hPa3.2 kmNorth (350°)9.3 km/h2.54 mmRainRain
10:24 PM11 °C11 °C100 %1008.8 hPa4.8 kmCalm0.25 mmRainLight Rain
10:46 PM11 °C9 °C88 %1008.8 hPa2.9 kmWNW (290°)5.6 km/h1.02 mmRainLight Rain
10:54 PM10.6 °C10 °C96 %1008.5 hPa2.4 kmCalm1.52 mmRainLight Rain
11:10 PM11 °C11 °C100 %1008.8 hPa4.8 kmSouth (180°)9.3 km/h0.25 mmRainLight Rain
11:17 PM11 °C10 °C94 %1008.8 hPa9.7 kmWNW (300°)13 km/hRainLight Rain
11:22 PM10 °C9 °C94 %1008.8 hPa4 kmCalm0.25 mmOvercast
11:30 PM11 °C10 °C94 %1008.5 hPa8 kmWest (260°)5.6 km/h0.25 mmMostly Cloudy
11:40 PM11 °C10 °C94 %1008.8 hPa14.5 kmWest (260°)7.4 km/h0.25 mmScattered Clouds
11:54 PM11.7 °C10.6 °C93 %1008.8 hPa16.1 kmWSW (240°)7.4 km/h0.25 mmClear
Hourly data recorded from KSUS, located 0 kilometers away from St. Louis, Missouri







STORIES FROM OUR PARTNERS